Retour au catalogue

HYDROGNSS-1

ActifScienceSSO
NORAD 66762·PAYLOAD·🇪🇺 EU

Lancé Nov 28, 2025 depuis Vandenberg Space Force Base

Loading…

Prochains Passages (prochaines 24 heures)

TLE

FraisSource: Space-Track

Époque: Sep 14, 2026, 15:05 UTC

1 66762U 25276DA  26257.62869559  .00002176  00000-0  13068-3 0  9998
2 66762  97.4122 327.5076 0012491 101.2040 259.0595 15.11869975 43867

Suivez HYDROGNSS-1 en temps réel avec AllMySat

Download on the App Store